Location: Unspecified
(0.0000°N, 0.0000°E)
Time: 04:41:19
(UTC+00:00)

Envisat - Pass Details

Date: 21 May 2019
Orbit: 764 x 766 km, 98.2° (Epoch: 22 May)

Event Time Altitude Azimuth Distance (km) Brightness Sun altitude
Rises 19:38:13 0° 191° (S) 3,230 6.1 -23.7°
Reaches altitude 10° 19:40:53 10° 204° (SSW) 2,302 5.5 -24.3°
Maximum altitude 19:44:58 25° 258° (WSW) 1,510 5.0 -25.3°
Drops below altitude 10° 19:49:03 10° 312° (NW) 2,293 6.4 -26.2°
Sets 19:51:43 0° 325° (NW) 3,216 7.1 -26.8°
